Theta_e
317 318 318 318 317 317 317 317 317 317 317 316 314 313 312 312 312 311 311 312 312 311 308 307 307 308 308 308 308 314 319 320 322 322 326 324 327 325 323 324 327 326 325
313 313 313 314 316 317 317 315 317 317 317 318 317 315 313 312 311 310 311 312 311 311 309 307 307 307 307 307 307 308 313 321 321 322 325 324 323 327 324 324 326 326 325
313 312 312 313 315 315 314 313 316 317 316 316 317 316 315 313 312 311 311 311 311 310 310 309 308 306 306 307 307 307 309 315 321 322 324 326 326 328 326 325 326 327 325
313 313 312 312 313 313 312 312 313 316 317 316 316 316 316 315 313 312 311 311 310 310 310 310 309 308 306 306 306 306 307 309 317 321 321 322 325 327 327 325 325 326 326
315 314 312 310 310 310 310 310 313 315 316 316 315 314 315 315 316 313 312 312 311 310 310 310 309 309 307 305 305 306 306 306 307 311 319 321 321 321 324 326 326 326 325
315 311 310 310 310 310 308 310 311 309 308 309 313 314 313 314 314 312 313 312 311 311 310 309 309 309 308 306 305 305 305 305 305 305 307 313 320 321 321 320 320 324 326
312 311 309 309 308 308 308 307 306 306 307 306 310 311 312 312 313 315 315 314 312 311 310 310 309 309 309 308 307 305 304 304 304 304 304 305 307 313 319 320 321 322 325
311 310 308 306 306 306 305 304 305 306 304 305 307 309 310 309 309 311 313 314 314 313 311 310 309 309 309 309 307 306 304 303 303 303 302 302 304 305 307 314 317 320 321
312 307 306 305 305 305 304 300 304 305 307 307 307 307 308 307 309 309 309 311 311 312 313 311 310 309 308 309 307 306 305 303 303 303 302 301 301 302 303 306 308 312 316
306 306 305 304 304 303 303 305 306 305 304 305 305 306 306 307 305 307 307 308 309 310 311 312 311 310 309 309 307 305 305 304 303 303 303 303 302 300 301 302 304 306 308
306 304 303 303 302 301 302 304 304 304 304 304 304 303 302 302 301 302 303 304 304 307 307 309 310 309 309 306 305 305 305 304 303 302 303 303 303 302 299 301 301 302 304
302 301 300 301 301 303 303 303 303 303 303 302 301 300 300 299 298 299 298 298 298 300 301 304 307 308 307 304 304 304 303 303 302 302 300 301 302 301 300 299 303 303 303
301 299 300 301 302 302 301 301 301 300 300 300 299 299 298 298 297 297 297 296 297 297 298 300 302 303 303 302 303 301 302 301 301 301 300 299 298 299 298 298 302 304 303
300 300 300 300 300 299 299 298 298 298 297 296 296 296 296 296 296 296 295 295 294 294 295 297 298 298 300 300 300 300 299 300 299 300 300 296 298 298 298 298 299 301 302
299 299 297 299 298 298 298 298 297 297 296 296 295 295 295 295 294 295 294 295 296 295 295 294 295 295 295 297 299 300 298 298 298 298 297 295 297 300 301 302 302 303 303
298 296 298 297 297 297 296 296 295 295 295 294 294 294 295 295 294 294 293 293 293 293 294 294 294 294 295 294 295 297 296 297 297 297 297 296 296 297 298 300 301 301 301
295 296 296 295 295 294 294 293 293 292 292 292 293 293 294 293 293 293 293 292 292 292 292 292 293 293 293 293 295 294 294 295 294 295 295 295 295 296 296 296 299 300 300
295 294 294 294 293 292 291 291 290 290 290 291 292 291 291 291 291 290 290 290 290 291 291 291 291 291 291 291 291 292 293 294 294 294 294 294 294 294 293 293 293 296 299
293 293 292 291 290 290 290 289 289 290 290 290 290 288 289 289 289 289 289 289 289 289 289 289 289 289 289 290 290 290 291 291 292 293 293 293 293 293 293 293 293 292 292
292 291 290 290 289 289 289 289 289 288 288 287 286 286 287 288 288 288 289 289 288 288 288 287 287 287 288 288 289 289 289 290 290 291 292 292 292 292 292 293 293 292 292
290 290 289 289 289 289 289 288 287 287 287 286 285 285 285 286 287 287 287 287 287 286 286 285 285 286 287 288 289 290 291 291 291 292 292 292 292 292 293 292 291 291 291
290 289 289 289 288 288 288 288 287 286 286 285 284 284 284 285 286 286 286 286 286 285 285 285 285 285 285 286 287 288 288 289 289 290 290 290 291 291 292 292 292 293 293
289 289 289 289 288 288 287 287 286 285 283 282 282 283 283 284 284 285 285 286 286 286 285 285 285 284 284 284 285 286 286 287 287 288 289 289 289 289 289 289 290 290 291
289 289 289 288 288 287 286 285 284 283 282 281 280 281 281 282 283 284 284 283 283 284 284 284 284 284 285 285 285 285 285 286 286 286 287 288 288 288 288 288 288 288 289
289 289 289 288 288 286 284 284 284 283 282 281 280 281 281 281 281 282 282 283 283 283 283 283 284 285 285 285 285 285 284 284 284 285 286 287 287 287 287 287 287 287 287
289 289 288 288 286 284 284 284 283 282 281 280 280 280 280 281 282 283 283 283 283 284 284 283 283 283 283 283 284 285 285 285 285 284 285 285 286 287 288 287 287 287 287
Wind_Speed
7 7 9 9 10 12 13 15 18 15 17 18 15 17 21 16 15 16 16 18 21 22 18 16 15 15 15 15 15 17 19 19 20 25 25 31 25 25 26 28 27 26 24
10 11 13 14 12 13 16 21 18 21 22 23 20 16 20 23 21 18 18 20 22 21 22 19 19 18 18 19 19 19 20 21 20 21 21 23 30 29 29 29 29 28 26
10 13 16 16 14 16 21 24 20 21 22 23 24 24 22 24 25 21 19 23 22 23 23 21 20 20 19 20 20 20 21 22 22 21 21 22 32 31 31 30 31 30 27
13 15 15 18 19 24 28 27 26 22 24 25 26 27 27 28 27 27 27 26 25 25 25 24 20 20 21 20 21 21 21 22 23 23 23 23 22 26 34 32 31 32 30
13 15 18 22 25 28 28 26 24 23 24 26 30 30 29 28 28 29 29 29 30 24 26 24 25 22 21 20 20 22 23 22 23 23 24 25 25 22 26 26 30 32 33
14 18 22 21 21 25 25 22 25 28 29 29 29 30 33 33 34 32 31 32 32 31 30 33 27 27 26 26 25 23 23 23 22 23 24 23 22 21 20 31 30 29 36
20 27 24 22 25 21 23 24 27 28 28 28 28 31 31 32 32 33 34 36 37 36 36 37 39 33 28 26 25 25 25 24 23 22 22 24 25 20 22 23 28 35 30
24 34 24 22 21 25 27 25 24 28 31 28 27 30 34 36 32 30 30 35 41 42 45 42 40 38 28 27 27 26 26 24 23 21 20 21 23 25 20 20 25 26 28
40 21 20 22 24 28 30 30 25 24 26 26 23 23 31 31 31 31 34 36 35 29 36 33 34 40 37 33 24 25 27 24 23 22 18 17 19 22 23 22 20 23 26
15 19 22 23 24 27 30 23 22 24 25 25 22 16 20 23 21 28 27 26 29 27 24 36 41 37 40 40 37 25 26 28 25 22 19 16 16 18 22 22 21 21 22
20 26 24 26 29 29 24 23 21 20 19 19 20 22 28 31 31 25 27 25 30 29 29 25 31 30 23 20 26 29 27 25 26 22 20 18 16 18 20 21 21 21 20
27 24 25 26 24 18 18 20 22 21 22 25 24 24 17 21 19 16 23 35 31 36 31 29 29 24 23 22 23 23 21 28 29 26 22 19 18 20 20 21 21 21 20
22 26 23 21 19 20 23 26 24 24 24 24 24 23 26 26 21 18 16 24 30 34 32 31 26 19 32 29 19 14 26 19 23 24 24 24 22 21 22 21 21 22 22
22 19 20 22 20 21 19 22 24 25 26 26 28 23 26 24 16 18 20 19 21 21 20 24 22 23 18 18 18 13 8 17 16 22 24 24 22 21 21 20 22 24 23
18 21 24 21 24 28 26 23 25 27 31 30 26 24 18 17 16 16 17 20 19 17 21 15 19 21 22 24 22 17 10 10 12 16 19 22 23 19 21 21 22 23 23
29 23 21 23 21 22 21 25 29 27 18 21 22 21 18 18 17 18 20 22 23 24 28 25 23 22 20 19 20 9 9 15 18 15 17 19 20 20 21 20 22 23 23
24 22 23 26 25 26 25 24 25 25 23 23 22 22 22 20 20 20 22 20 22 22 26 26 21 20 20 16 16 20 19 17 17 22 23 27 27 29 26 24 23 24 24
21 20 21 23 24 22 22 23 24 24 25 23 22 23 26 25 25 24 21 21 21 21 24 29 25 23 24 25 23 20 19 19 21 21 21 23 24 24 26 28 30 31 29
20 21 23 23 24 23 23 23 23 20 20 22 23 26 24 26 27 28 26 26 25 22 23 23 25 24 24 23 25 23 22 22 21 25 26 26 24 23 27 30 29 30 35
22 22 22 22 22 23 24 24 22 25 29 33 36 30 30 26 26 26 25 21 24 27 28 30 31 28 25 26 24 26 28 27 29 25 25 26 25 25 24 26 29 32 34
21 20 22 23 24 24 23 25 30 32 33 35 37 33 27 26 28 26 26 27 25 26 29 30 30 25 23 22 22 19 17 15 16 17 18 23 25 22 15 22 28 31 32
20 22 22 24 23 21 24 29 32 33 34 36 39 34 25 26 26 25 23 25 25 26 26 27 27 27 29 27 27 22 20 19 20 21 21 25 28 30 28 25 21 19 28
21 23 25 22 19 19 24 32 35 36 36 37 30 27 29 28 27 26 24 25 26 22 22 25 25 29 30 27 28 33 32 26 23 21 24 24 26 29 31 34 36 33 31
22 24 22 21 22 29 33 30 32 31 35 32 27 27 27 27 26 25 26 27 26 27 29 26 29 28 26 24 25 25 25 27 30 31 26 29 29 32 30 32 33 31 31
23 20 21 23 28 32 32 28 27 33 29 31 30 24 24 26 26 22 23 24 24 23 21 21 25 27 25 26 29 32 35 33 34 27 21 26 29 30 31 33 32 32 31
18 24 28 28 32 30 25 26 29 27 28 31 30 28 26 24 27 25 23 23 24 23 20 27 30 33 34 33 29 24 27 31 33 32 31 28 25 22 26 27 27 25 25
Wind_Direction
344 5 358 359 341 339 326 311 307 304 298 298 302 297 304 299 290 297 276 281 285 284 279 271 267 266 266 266 263 261 259 252 247 252 251 223 230 229 225 220 219 219 221
348 348 340 338 335 319 307 312 321 314 314 309 310 297 292 296 300 271 265 270 273 277 280 272 269 266 265 265 263 260 256 254 250 248 243 229 226 230 226 222 220 220 222
332 329 328 328 315 302 307 313 307 300 299 297 294 294 292 294 292 288 278 263 268 274 277 278 264 262 264 265 263 257 255 253 249 246 243 235 236 230 229 228 224 222 221
312 315 311 312 311 307 312 311 307 303 296 294 293 290 287 285 279 279 280 273 269 266 269 270 261 264 256 257 263 262 253 249 249 245 241 240 240 236 229 225 228 228 224
285 307 318 318 314 310 310 307 302 299 294 288 286 285 285 288 288 279 270 270 270 261 258 263 264 257 252 255 256 261 263 256 250 248 246 243 242 240 243 235 232 233 229
295 313 316 314 302 301 303 300 291 291 294 299 298 294 291 288 282 277 273 272 264 265 256 253 251 250 246 256 256 252 253 258 255 252 251 249 245 238 241 231 243 246 232
299 320 326 307 304 298 292 290 297 305 306 306 305 301 297 292 289 287 283 272 264 262 255 255 253 247 250 253 242 248 249 250 253 250 249 252 253 242 235 232 231 237 236
309 323 306 310 309 297 299 307 306 299 298 297 297 297 299 296 289 286 285 280 269 264 258 251 242 244 238 243 242 241 243 246 250 255 252 245 249 256 243 238 237 238 239
310 307 302 308 305 303 306 313 304 303 295 287 284 294 304 295 300 289 284 273 283 286 266 250 258 238 236 235 228 237 238 242 244 249 253 254 247 248 253 247 245 243 243
307 294 302 305 303 301 305 305 292 284 292 295 293 283 274 291 318 309 290 281 276 294 296 263 251 258 237 224 227 233 237 241 244 238 246 255 259 251 249 250 247 247 246
289 300 301 297 301 304 310 303 299 293 284 285 289 297 298 289 297 305 305 293 281 276 284 270 261 246 248 221 226 236 236 235 237 251 243 248 263 260 251 252 250 248 246
308 311 310 310 314 312 306 295 294 287 288 290 290 292 290 313 306 308 304 301 306 299 288 290 267 264 241 220 221 237 246 239 241 249 246 254 254 255 251 244 251 255 247
323 323 321 321 313 300 293 287 292 296 296 301 303 293 296 301 289 296 294 294 298 301 302 287 281 286 257 257 237 264 244 255 240 242 252 261 254 248 247 241 238 242 252
320 328 312 309 301 296 290 291 292 290 297 298 296 291 299 299 293 289 296 301 308 314 318 308 308 295 275 266 249 228 251 231 251 251 260 255 257 252 250 245 242 245 243
306 304 309 302 298 295 297 300 299 296 303 298 296 297 293 293 298 297 297 289 277 290 302 311 313 322 319 289 271 236 256 277 253 257 258 259 252 252 249 245 245 243 245
309 320 316 312 313 314 313 308 307 305 302 304 299 290 288 280 288 293 291 294 292 290 288 295 299 303 300 302 297 248 270 274 265 258 248 252 258 251 247 245 247 245 243
317 314 315 317 317 316 319 318 319 321 320 314 304 305 297 299 296 293 287 287 288 286 288 294 293 290 290 302 295 295 277 259 271 268 263 261 259 257 254 249 244 244 242
319 315 316 315 315 318 320 320 317 315 313 309 309 303 299 299 295 293 296 294 293 287 289 294 293 294 289 286 287 274 270 267 262 271 270 267 265 262 260 261 254 247 244
316 311 312 312 312 314 313 312 310 307 294 290 292 297 307 296 291 289 289 285 285 291 286 296 296 291 286 283 283 282 276 271 268 264 262 262 267 259 252 254 259 259 255
310 312 314 315 314 313 312 305 300 299 302 302 303 295 285 294 300 293 285 279 278 277 280 285 284 285 287 282 281 283 277 270 267 266 261 259 268 267 262 257 259 264 264
310 310 312 313 314 315 309 310 308 306 307 305 305 303 294 285 287 291 293 288 284 281 286 282 278 281 282 282 280 281 282 273 265 260 258 251 257 256 267 268 267 266 268
310 310 310 311 312 313 308 305 303 306 308 308 306 306 304 298 293 292 289 291 288 288 283 278 275 276 275 270 271 281 285 285 286 254 260 263 261 259 251 246 263 254 250
310 311 311 311 304 305 307 306 307 313 316 314 304 297 295 296 292 296 294 282 281 281 269 269 277 281 281 280 274 273 274 277 279 278 272 269 262 264 264 263 260 257 258
309 309 312 306 303 302 307 306 307 310 317 323 311 302 295 295 296 291 297 296 288 281 281 280 282 282 282 283 275 267 269 272 271 269 266 268 264 264 264 264 266 265 262
310 305 308 302 306 316 323 316 315 312 317 318 324 316 312 306 302 296 289 288 288 284 282 277 271 273 273 272 271 273 273 275 274 271 264 263 266 269 272 270 269 270 272
314 315 314 315 323 322 320 312 310 316 320 321 317 314 313 312 304 298 293 284 277 280 272 277 278 277 275 273 269 261 267 264 265 271 265 262 268 268 272 273 271 273 268